星链-3392 (STARLINK-3392 )

导读 | 星芒AI

STARLINK-3392 是由 SpaceX 发射的星链计划中的一颗低轨通信卫星,属于其大规模星座部署的一部分。该卫星旨在提供全球范围内的高速互联网服务,尤其关注偏远和网络覆盖不足的地区。它运行在约 550 公里的轨道高度,配备先进通信设备,支持高速数据传输和低延迟通信。STARLINK-3392 的发射进一步增强了星链网络的稳定性和覆盖能力,为用户带来更优质的互联网体验。

基本信息
目录编号:
51123
目录名称:
STARLINK-3392
国际标识:
2022-005V
轨道中心:
EARTH
卫星名称:
星链-3392
卫星全名:
星链-3392 (STARLINK-3392 )
卫星状态:
在轨 (已飞行1431 天)
发射日期:
2022-01-19 UTC
国别 :
美国 (US)
星等 :
--
轨道信息
数据来源 国际轨道数据
星历时间: 2025-12-20T11:54:54+0800
8小时前
查看轨道信息
半长轴: 6917.901km
偏心率: 0.0001383
轨道倾角: 53.217°
近地点辐角 86.138°
升交点赤经 286.128°
平近点角 273.978°
近地点: 538.807km
远地点: 540.721km
周期: 95.438分钟
每日圈数: 15.088335
详细信息
固有亮度:
5
最大亮度:
2.5
卫星平台:
Starlink v1.5
覆盖范围:
全球
运营商:
太空探索技术公司
运营商所在国:
美国
制造商(研发单位):
太空探索技术公司
制造商所在国:
美国
使用方式:
暂无
卫星简介
星链(Starlink)计划是由太空探索技术公司(SpaceX)提出的一个巨型低轨卫星互联网星座项目,计划在2019年至2024年间在太空搭建由约1.2万颗卫星组成的“星链”网络,其中1584颗将部署在地球上空550千米处的近地轨道,并从2020年开始工作。该卫星仍在工作。
2D轨道图
3D轨道图
轨道高度分析图
轨道倾角分析图
轨道综合分析图
查看轨道综合分析图